Cherry Point, NC

3:31 PM EST on February 19, 2017 (GMT -0500)
Cherry Point Marine Corps Air Station

Weather History for KNKT - October, 2012

Change the Weather History Date:

Friday, October 19, 2012

  Actual Average Record
Temperature  
Mean Temperature 70 °F -  
Max Temperature 79 °F 70 °F 86 °F (2007)
Min Temperature 61 °F 50 °F 43 °F (2015)
Cooling Degree Days 4    
Growing Degree Days 20 (Base 50)    
Moisture  
Dew Point 65 °F    
Average Humidity 90    
Maximum Humidity 100    
Minimum Humidity 66    
Precipitation  
Precipitation 0.26 in - - ()
Sea Level Pressure  
Sea Level Pressure 29.79 in    
Wind  
Wind Speed 3 mph ()    
Max Wind Speed 10 mph    
Max Gust Speed -    
Visibility 5.1 miles    
Events Fog    
Averages and records for this station are not official NWS values.
T = Trace of Precipitation, MM = Missing Value Source: Averaged Metar Reports

Daily Weather History Graph

Daily Weather History Graph

Search for Another Location

Airport or City:

Trip Planner

Search our weather history database for the weather conditions in past years. The results will help you decide how hot, cold, wet, or windy it might be!

Date:

Astronomy

Oct. 19, 2012 Rise Set
Actual Time 7:17 AM EDT 6:27 PM EDT
Civil Twilight 6:51 AM EDT 6:52 PM EDT
Nautical Twilight 6:22 AM EDT 7:22 PM EDT
Astronomical Twilight 5:52 AM EDT 7:51 PM EDT
Moon 11:50 AM EDT 10:10 PM EDT
Length of Visible Light 12h 01m
Length of Day
11h 09m
Waxing Crescent, 23% of the Moon is Illuminated
Oct 19
Waxing Crescent
Oct 21
First Quarter
Oct 29
Full
Nov 6
Last Quarter
Nov 13
New

Hourly Weather History & Observations

Time (EDT) Temp. Dew Point Humidity Pressure Visibility Wind Dir Wind Speed Gust Speed Precip Events Conditions
12:54 AM 69.1 °F 66.9 °F 93% 29.81 in 8.0 mi Calm Calm - N/A   Scattered Clouds
1:46 AM 69.8 °F 66.2 °F 88% 29.81 in 3.0 mi SSW 3.5 mph - N/A   Partly Cloudy
1:54 AM 70.0 °F 68.0 °F 93% 29.80 in 8.0 mi SW 5.8 mph - N/A   Clear
2:54 AM 69.1 °F 66.9 °F 93% 29.79 in 10.0 mi WSW 5.8 mph - N/A   Clear
3:54 AM 69.1 °F 66.9 °F 93% 29.77 in 10.0 mi SW 3.5 mph - N/A   Clear
4:54 AM 68.0 °F 66.0 °F 93% 29.76 in 8.0 mi SSE 3.5 mph - N/A   Clear
5:20 AM 66.2 °F 64.4 °F 94% 29.78 in 1.8 mi SE 4.6 mph - N/A   Clear
5:54 AM 66.0 °F 64.9 °F 96% 29.76 in 1.5 mi SE 4.6 mph - 0.01 in   Partly Cloudy
5:58 AM 64.4 °F 62.6 °F 94% 29.77 in 0.8 mi SE 4.6 mph - N/A   Mist
6:03 AM 64.4 °F 62.6 °F 94% 29.77 in 0.2 mi SE 3.5 mph - N/A Fog Fog
6:16 AM 64.4 °F 64.4 °F 100% 29.78 in 0.5 mi Calm Calm - N/A Fog Fog
6:23 AM 66.2 °F 64.4 °F 94% 29.78 in 0.5 mi Calm Calm - N/A Fog Fog
6:31 AM 66.2 °F 64.4 °F 94% 29.78 in 0.2 mi Calm Calm - N/A Fog Fog
6:50 AM 64.4 °F 62.6 °F 94% 29.80 in 0.5 mi Calm Calm - N/A Fog Fog
6:54 AM 64.9 °F 63.0 °F 93% 29.79 in 0.5 mi Calm Calm - N/A Fog Fog
6:56 AM 64.4 °F 64.4 °F 100% 29.80 in 0.8 mi Calm Calm - N/A   Mist
7:12 AM 64.4 °F 64.4 °F 100% 29.80 in 0.2 mi Calm Calm - N/A Fog Fog
7:24 AM 64.4 °F 64.4 °F 100% 29.80 in 0.2 mi Calm Calm - N/A Fog Fog
7:39 AM 62.6 °F 62.6 °F 100% 29.80 in 0.5 mi ESE 3.5 mph - N/A Fog Fog
7:46 AM 62.6 °F 62.6 °F 100% 29.80 in 0.8 mi ESE 4.6 mph - N/A   Mist
7:49 AM 62.6 °F 62.6 °F 100% 29.80 in 0.2 mi ESE 4.6 mph - N/A Fog Fog
7:54 AM 64.0 °F 63.0 °F 96% 29.80 in 0.2 mi SE 3.5 mph - N/A Fog Fog
8:03 AM 66.2 °F 64.4 °F 94% 29.80 in 0.2 mi Calm Calm - N/A Fog Fog
8:09 AM 66.2 °F 66.2 °F 100% 29.81 in 0.2 mi Calm Calm - N/A Fog Fog
8:17 AM 68.0 °F 66.2 °F 94% 29.81 in 0.5 mi Calm Calm - N/A Fog Fog
8:22 AM 69.8 °F 68.0 °F 94% 29.81 in 1.0 mi Calm Calm - N/A   Overcast
8:27 AM 69.8 °F 68.0 °F 94% 29.81 in 3.0 mi Calm Calm - N/A   Overcast
8:46 AM 71.6 °F 69.8 °F 94% 29.81 in 7.0 mi Calm Calm - N/A   Scattered Clouds
8:54 AM 71.1 °F 69.1 °F 93% 29.81 in 8.0 mi WSW 3.5 mph - N/A   Partly Cloudy
9:54 AM - - N/A% 29.81 in 10.0 mi North - - 0.24 in   Partly Cloudy
9:58 AM 72.0 °F 66.9 °F 84% 29.81 in 7.0 mi WSW 3.5 mph - N/A   Mostly Cloudy
10:54 AM 72.0 °F 68.0 °F 87% 29.80 in 10.0 mi South 3.5 mph - 0.01 in   Overcast
11:54 AM 73.9 °F 66.9 °F 79% 29.80 in 10.0 mi WSW 10.4 mph - N/A   Overcast
12:54 PM 73.9 °F 68.0 °F 82% 29.78 in 10.0 mi North - - N/A   Overcast
1:54 PM 75.9 °F 68.0 °F 76% 29.75 in 10.0 mi WSW 3.5 mph - N/A   Unknown
2:54 PM 77.0 °F 66.9 °F 71% 29.74 in 10.0 mi West 8.1 mph - N/A   Overcast
3:54 PM 77.0 °F 66.0 °F 69% 29.73 in 10.0 mi West 8.1 mph - N/A   Mostly Cloudy
4:54 PM 77.0 °F 64.9 °F 66% 29.73 in 10.0 mi WSW 9.2 mph - N/A   Clear
5:54 PM 75.0 °F 66.0 °F 73% 29.73 in 10.0 mi SSW 4.6 mph - N/A   Clear
6:54 PM 72.0 °F 66.0 °F 81% 29.74 in 10.0 mi SSW 5.8 mph - N/A   Scattered Clouds
7:54 PM 69.1 °F 66.0 °F 90% 29.75 in 8.0 mi South 4.6 mph - N/A   Clear
8:54 PM 69.1 °F 66.0 °F 90% 29.76 in 8.0 mi SSW 5.8 mph - N/A   Partly Cloudy
9:54 PM 66.9 °F 64.0 °F 90% 29.78 in 10.0 mi SW 4.6 mph - N/A   Clear
10:54 PM 64.0 °F 60.1 °F 87% 29.81 in 10.0 mi SW 4.6 mph - N/A   Clear
11:54 PM 61.0 °F 57.0 °F 87% 29.81 in 10.0 mi WSW 8.1 mph - N/A   Clear